Weather History for Brookings, OR

Change the Weather History Date:

Wednesday, January 8, 2014

  Actual Average Record
Temperature  
Mean Temperature 50 °F -  
Max Temperature 51 °F 53 °F 74 °F (1943)
Min Temperature 48 °F 40 °F 26 °F (1937)
Degree Days  
Heating Degree Days 16    
Moisture  
Dew Point 49 °F    
Average Humidity 100    
Maximum Humidity 100    
Minimum Humidity 100    
Precipitation  
Precipitation 0.74 in - - ()
Sea Level Pressure  
Sea Level Pressure 30.16 in    
Wind  
Wind Speed 7 mph (SSE)    
Max Wind Speed 14 mph    
Max Gust Speed 20 mph    
Visibility 1 miles    
Events Fog , Rain    
Averages and records for this station are not official NWS values.
T = Trace of Precipitation, MM = Missing Value Source: NWS Daily Summary

Daily Weather History Graph

Daily Weather History Graph

Search for Another Location

Airport:

Trip Planner

Search our weather history database for the weather conditions in past years. The results will help you decide how hot, cold, wet, or windy it might be!

Date:

Astronomy

Jan. 08, 2014 Rise Set
Actual Time 7:45 AM PST 5:03 PM PST
Civil Twilight 7:13 AM PST 5:34 PM PST
Nautical Twilight 6:38 AM PST 6:09 PM PST
Astronomical Twilight 6:05 AM PST 6:43 PM PST
Moon 12:02 PM PST (1/8) 12:53 AM PST (1/8)
Length of Visible Light 10h 20m
Length of Day
9h 17m
First Quarter, 57% of the Moon is Illuminated
Jan 8
First Quarter
Jan 15
Full
Jan 23
Last Quarter
Jan 30
New
Feb 6
First Quarter

Hourly Weather History & Observations

Time (PST) Temp. Dew Point Humidity Pressure Visibility Wind Dir Wind Speed Gust Speed Precip Events Conditions
12:22 AM 48.2 °F 48.2 °F 100% 30.17 in 0.2 mi SSE 6.9 mph - 0.04 in Fog , Rain Light Rain
12:31 AM 48.2 °F 48.2 °F 100% 30.16 in 0.2 mi SSE 8.1 mph - 0.05 in Fog , Rain Light Rain
12:56 AM 48.9 °F 48.9 °F 100% 30.17 in 0.2 mi SE 8.1 mph - 0.07 in Fog , Rain Light Rain
1:12 AM 48.2 °F 48.2 °F 100% 30.15 in 0.2 mi SSE 6.9 mph - 0.03 in Fog , Rain Light Rain
1:27 AM 48.2 °F 48.2 °F 100% 30.15 in 0.5 mi SE 6.9 mph - 0.05 in Fog , Rain Light Rain
1:56 AM 48.9 °F 48.9 °F 100% 30.17 in 0.8 mi SE 5.8 mph - 0.10 in Rain Light Rain
2:04 AM 48.2 °F 48.2 °F 100% 30.16 in 1.0 mi Variable 6.9 mph - 0.00 in Rain Light Rain
2:17 AM 48.2 °F 48.2 °F 100% 30.16 in 0.8 mi SSE 5.8 mph - 0.04 in Rain Rain
2:44 AM 48.2 °F 48.2 °F 100% 30.17 in 0.5 mi SSE 5.8 mph - 0.08 in Fog , Rain Light Rain
2:56 AM 48.9 °F 48.9 °F 100% 30.18 in 0.5 mi SE 6.9 mph - 0.11 in Fog , Rain Light Rain
3:10 AM 48.2 °F 48.2 °F 100% 30.17 in 0.2 mi SE 5.8 mph - 0.00 in Fog , Rain Light Rain
3:21 AM 48.2 °F 48.2 °F 100% 30.17 in 0.2 mi SSE 8.1 mph - 0.00 in Fog , Rain Light Rain
3:31 AM 48.2 °F 48.2 °F 100% 30.17 in 0.5 mi Variable 6.9 mph - 0.01 in Fog , Rain Light Rain
3:49 AM 48.2 °F 48.2 °F 100% 30.17 in 0.2 mi SSE 8.1 mph - 0.02 in Fog , Rain Light Rain
3:56 AM 48.9 °F 48.9 °F 100% 30.18 in 0.2 mi SSE 9.2 mph - 0.03 in Fog , Rain Light Rain
4:12 AM 48.2 °F 48.2 °F 100% 30.17 in 0.2 mi SSE 8.1 mph - 0.00 in Fog , Rain Light Rain
4:56 AM 48.9 °F 48.9 °F 100% 30.17 in 0.2 mi Variable 6.9 mph - 0.01 in Fog , Rain Light Rain
5:56 AM 48.9 °F 48.9 °F 100% 30.18 in 0.2 mi Variable 6.9 mph - 0.00 in Fog Fog
6:56 AM 48.9 °F 48.9 °F 100% 30.15 in 0.2 mi SE 8.1 mph - 0.02 in Fog , Rain Light Rain
7:17 AM 48.2 °F 48.2 °F 100% 30.13 in 0.2 mi SSE 10.4 mph - 0.00 in Fog Fog
7:30 AM 50.0 °F 50.0 °F 100% 30.13 in 0.2 mi SSE 9.2 mph - 0.00 in Fog Fog
7:56 AM 50.0 °F 50.0 °F 100% 30.14 in 0.2 mi South 8.1 mph - 0.00 in Fog Fog
8:56 AM 48.9 °F 48.9 °F 100% 30.18 in 0.2 mi South 10.4 mph - N/A Fog Fog
9:56 AM 48.9 °F 48.9 °F 100% 30.20 in 0.2 mi South 10.4 mph 17.3 mph N/A Fog Fog
10:56 AM 48.9 °F 48.9 °F 100% 30.19 in 0.2 mi SSE 8.1 mph - 0.00 in Fog , Rain Light Rain
11:56 AM 50.0 °F 50.0 °F 100% 30.18 in 0.2 mi South 12.7 mph 19.6 mph 0.03 in Fog , Rain Light Rain
12:56 PM 50.0 °F 50.0 °F 100% 30.16 in 0.2 mi South 9.2 mph - 0.09 in Fog , Rain Light Rain
1:56 PM 50.0 °F 50.0 °F 100% 30.12 in 0.2 mi SSE 9.2 mph - 0.01 in Fog Fog
2:56 PM 48.9 °F 48.9 °F 100% 30.14 in 0.2 mi South 11.5 mph - N/A Fog Fog
3:56 PM 48.9 °F 48.9 °F 100% 30.12 in 0.2 mi South 13.8 mph 19.6 mph 0.00 in Fog Fog
4:56 PM 50.0 °F 50.0 °F 100% 30.14 in 0.2 mi South 9.2 mph - 0.08 in Fog , Rain Light Rain
5:19 PM 50.0 °F 50.0 °F 100% 30.14 in 0.2 mi South 12.7 mph - 0.07 in Fog , Rain Rain
5:56 PM 50.0 °F 50.0 °F 100% 30.15 in 0.2 mi South 10.4 mph 19.6 mph 0.17 in Fog , Rain Light Rain
6:17 PM 50.0 °F 50.0 °F 100% 30.14 in 0.2 mi South 8.1 mph 16.1 mph 0.02 in Fog , Rain Light Rain
6:24 PM 50.0 °F 50.0 °F 100% 30.13 in 0.2 mi South 10.4 mph - 0.02 in Fog Fog
6:56 PM 50.0 °F 50.0 °F 100% 30.14 in 0.2 mi South 8.1 mph - 0.02 in Fog Fog
7:38 PM 51.8 °F 51.8 °F 100% 30.13 in 0.2 mi Variable 3.5 mph - N/A Fog Fog
7:56 PM 50.9 °F 50.9 °F 100% 30.14 in 0.5 mi Variable 5.8 mph - N/A Fog Fog
8:08 PM 50.0 °F 50.0 °F 100% 30.13 in 0.2 mi Calm Calm - N/A Fog Fog
8:31 PM 50.0 °F 50.0 °F 100% 30.14 in 0.5 mi Variable 4.6 mph - N/A Fog Fog
8:56 PM 50.0 °F 50.0 °F 100% 30.16 in 0.8 mi Variable 4.6 mph - 0.00 in   Overcast
9:00 PM 50.0 °F 50.0 °F 100% 30.15 in 1.2 mi Variable 3.5 mph - 0.00 in   Overcast
9:02 PM 50.0 °F 50.0 °F 100% 30.15 in 2.0 mi Variable 6.9 mph - 0.00 in   Overcast
9:11 PM 50.0 °F 50.0 °F 100% 30.15 in 3.0 mi SW 8.1 mph - 0.00 in   Overcast
9:56 PM 50.0 °F 50.0 °F 100% 30.17 in 4.0 mi SW 3.5 mph - 0.00 in   Overcast
10:17 PM 50.0 °F 50.0 °F 100% 30.16 in 5.0 mi NW 4.6 mph - N/A   Overcast
10:43 PM 48.2 °F 48.2 °F 100% 30.18 in 4.0 mi NW 4.6 mph - N/A   Overcast
10:56 PM 48.9 °F 48.9 °F 100% 30.19 in 4.0 mi NW 5.8 mph - N/A   Overcast
11:31 PM 48.2 °F 48.2 °F 100% 30.18 in 4.0 mi Variable 4.6 mph - N/A   Overcast
11:56 PM 48.9 °F 48.9 °F 100% 30.19 in 4.0 mi NW 4.6 mph - N/A   Overcast